Temperature
23 20 19 20 20 21 20 20 19 20 21 20 19 18 17 17 16 16 15 16 16 16 17 17 18 18 18 18 19 19 20 20 20 20 20 20 20 20 20 20 19 19 19 19
19 19 20 21 20 20 19 18 18 19 20 20 17 16 16 15 15 15 14 14 14 15 16 16 17 17 17 17 18 18 19 19 20 20 20 20 20 20 20 20 19 19 19 19
19 20 21 20 19 18 19 18 19 19 19 19 17 15 14 14 14 14 13 13 14 14 14 15 16 16 16 16 16 17 18 18 19 19 20 20 19 19 19 19 19 19 18 18
18 19 19 18 18 18 17 18 19 19 17 16 17 14 12 13 13 13 13 12 13 13 14 14 15 15 15 15 15 16 16 17 18 19 19 19 19 19 19 19 18 18 18 18
18 18 17 17 17 18 17 18 17 18 17 15 15 13 12 12 12 12 12 12 12 12 13 13 14 14 14 14 15 15 15 16 17 17 18 18 19 19 19 18 18 17 17 17
18 19 18 18 18 18 16 16 16 14 13 13 13 13 12 11 11 12 12 12 12 12 12 13 13 13 14 14 14 14 14 15 15 16 16 17 17 18 18 18 17 17 17 16
17 17 18 18 16 16 14 13 13 13 12 13 13 12 11 12 12 11 11 11 11 11 12 12 12 13 13 13 13 13 13 14 14 15 15 15 16 16 16 16 16 16 16 16
16 15 17 17 16 15 15 13 12 13 13 13 13 12 11 12 12 11 11 11 11 11 11 12 12 12 12 13 13 13 13 13 13 14 14 14 14 14 15 15 15 15 15 15
15 16 18 17 16 15 14 13 13 12 13 12 12 12 12 12 12 11 11 11 11 11 11 12 12 12 12 12 12 13 13 13 13 13 13 13 14 14 14 14 14 14 14 14
16 16 17 17 16 15 14 14 11 11 11 11 12 12 11 10 11 11 11 10 11 11 11 12 12 12 12 12 12 12 13 12 12 13 13 13 13 13 13 13 13 13 13 14
16 15 15 15 15 14 13 13 11 10 11 11 11 11 11 10 10 10 10 10 11 11 12 12 12 12 12 12 12 12 12 12 13 13 13 13 13 13 13 13 13 13 13 13
15 12 13 15 16 16 14 13 11 10 10 10 11 11 12 10 10 10 10 11 12 12 12 12 12 12 12 12 12 12 13 13 13 13 13 13 13 13 13 13 13 13 13 13
15 13 12 14 14 14 14 13 12 10 9 10 11 11 12 11 11 11 12 12 13 13 13 13 13 13 12 12 12 12 12 12 13 13 13 13 13 13 13 13 14 14 14 14
15 13 13 14 14 14 14 13 12 11 9 10 11 11 11 11 11 12 13 13 13 14 14 13 13 13 13 12 12 12 12 12 12 12 13 13 13 13 13 13 13 14 14 14
14 14 15 15 15 15 14 13 13 11 11 10 11 11 11 11 12 13 13 14 14 14 14 14 14 13 13 13 12 12 12 12 12 12 12 12 12 12 12 13 13 13 13 13
14 15 15 16 16 15 14 14 13 13 12 12 12 12 12 13 13 13 14 14 14 14 14 14 14 14 13 13 13 12 12 12 12 12 12 12 12 12 12 12 12 12 12 12
14 14 14 14 16 15 14 14 14 13 13 12 12 13 13 13 14 14 14 14 14 14 15 15 14 14 14 13 13 13 12 12 12 12 12 11 12 12 12 12 12 12 12 12
15 14 12 13 15 15 14 15 15 14 14 14 14 14 14 14 14 15 15 15 15 15 15 15 15 15 14 14 13 13 13 12 12 12 11 11 11 11 11 11 11 11 11 11
14 14 13 12 14 14 15 15 15 14 14 15 14 15 15 15 14 15 15 15 15 15 15 15 15 15 14 14 14 14 13 13 12 12 11 11 11 11 11 11 11 11 11 11
14 12 13 13 14 14 14 15 17 15 14 15 15 15 15 14 12 13 15 15 15 15 15 15 15 15 15 14 14 14 14 13 12 12 12 11 11 11 11 11 11 10 10 10
14 14 14 13 14 14 15 16 16 13 13 16 16 16 15 15 13 15 15 15 15 15 15 15 15 15 15 15 14 14 14 13 13 12 12 12 11 11 11 11 11 10 10 10
14 13 13 12 14 14 15 15 14 14 16 16 16 16 16 15 15 15 15 15 15 15 15 15 15 15 15 15 14 14 14 13 13 13 12 12 11 11 11 11 11 10 10 10
14 14 12 13 13 15 17 17 17 17 16 16 16 16 16 15 15 15 15 15 15 14 14 15 15 15 15 15 15 14 14 14 13 13 12 12 11 11 11 11 11 10 10 10
15 15 13 13 14 15 17 17 17 17 17 16 16 16 16 15 15 15 15 15 15 15 15 15 15 15 15 15 14 14 14 14 13 13 12 12 11 11 11 11 10 10 10 10
15 15 14 14 14 15 16 17 17 17 17 16 16 16 15 15 15 15 15 15 15 15 15 15 14 14 14 14 14 14 14 14 13 13 12 12 11 11 11 11 10 10 10 10
15 15 14 14 15 15 16 17 17 16 16 16 16 15 15 15 15 15 15 15 15 15 15 15 15 15 14 15 15 14 14 14 13 13 12 12 12 11 11 11 10 10 10 9
Wind_Speed
7 10 8 8 8 6 6 6 5 5 6 5 7 9 13 15 17 17 16 15 15 13 11 12 14 13 12 13 13 13 13 11 7 3 2 4 7 7 6 6 7 8 9 11
8 10 6 7 11 9 9 7 6 5 7 5 10 12 11 17 17 15 15 16 16 16 16 16 15 15 14 14 13 11 11 11 9 5 3 3 4 4 5 4 4 5 6 7
10 4 7 12 13 10 6 4 3 4 6 5 7 7 12 11 16 18 19 17 17 16 15 16 15 14 14 14 13 12 11 11 11 9 4 1 1 1 1 2 2 2 3 4
8 7 9 11 9 7 5 6 6 5 3 3 3 3 8 11 16 20 19 19 19 16 14 13 13 13 13 12 12 11 11 11 11 10 6 2 3 4 5 5 4 4 3 2
5 5 9 8 7 8 6 9 6 3 1 2 5 5 5 8 15 18 17 18 17 14 14 13 12 12 11 12 11 11 11 11 11 11 8 3 0 2 3 5 6 5 4 3
6 3 5 5 5 6 7 6 7 7 6 5 6 5 6 8 12 16 16 16 15 13 13 12 11 10 10 10 10 10 10 10 10 10 10 7 3 3 5 5 6 5 4 4
5 7 5 6 7 9 9 7 6 8 7 2 4 7 4 7 10 12 14 14 14 12 12 11 11 11 11 11 10 10 9 9 10 10 10 8 7 5 4 4 5 5 4 3
3 6 7 7 6 5 6 6 5 2 1 1 5 4 1 6 9 11 11 12 13 12 11 11 11 10 10 10 9 9 8 8 9 9 8 8 7 5 5 5 4 4 2 2
5 3 4 6 7 5 5 4 1 5 2 3 3 2 2 10 14 14 14 14 13 12 12 11 11 10 10 9 8 8 8 8 8 8 8 7 7 6 5 5 4 3 2 2
6 6 3 4 7 8 4 2 6 5 3 3 3 3 7 15 17 16 15 13 12 12 12 12 11 10 10 9 7 7 7 7 7 8 7 6 6 5 4 4 4 3 2 2
5 6 5 6 6 7 8 6 5 5 4 3 2 3 6 11 13 13 13 11 11 11 10 10 9 9 8 9 9 8 8 7 7 7 7 7 6 5 4 3 2 2 2 2
4 6 4 2 1 3 6 5 4 5 4 3 2 3 6 8 9 10 10 10 9 9 8 7 8 8 9 10 9 9 9 8 7 6 6 7 7 6 6 5 4 3 2 2
4 6 4 3 6 6 6 5 5 6 5 3 2 3 6 6 7 8 8 9 9 8 7 7 7 8 8 8 8 8 8 8 8 8 8 8 9 9 8 8 6 6 5 5
5 5 5 5 4 2 3 4 4 5 4 3 0 4 7 8 8 9 9 9 8 8 7 7 7 7 7 7 7 7 8 8 8 9 9 10 9 9 8 8 9 9 8 8
5 4 3 4 5 5 5 5 5 5 5 5 3 4 6 6 6 7 7 8 8 8 8 7 6 5 6 6 6 7 7 8 8 8 9 9 8 8 8 8 9 9 9 10
4 5 3 2 4 6 5 5 5 4 4 4 3 4 5 4 4 5 6 7 8 8 9 8 7 5 5 5 5 5 6 6 6 8 8 8 8 8 9 8 8 9 9 8
3 5 4 2 4 4 2 5 5 4 4 6 4 5 3 1 3 4 4 5 6 7 8 8 7 5 3 2 2 3 4 5 6 6 7 7 7 8 8 8 8 8 7 7
4 4 4 3 4 3 6 4 7 6 5 6 5 4 5 5 3 3 2 2 5 7 7 8 7 5 3 1 1 2 3 4 5 5 6 6 7 7 7 7 7 7 5 6
4 5 4 4 3 1 2 4 6 6 4 5 4 3 5 3 2 5 4 1 2 4 4 5 5 3 3 1 0 2 2 3 4 4 5 5 5 6 7 7 6 5 5 5
5 6 5 4 4 6 8 7 6 5 2 5 5 5 6 5 2 4 5 3 3 5 5 5 6 5 5 3 1 2 1 2 2 2 3 4 4 6 6 6 6 5 5 6
1 2 2 3 4 6 5 7 8 5 8 6 7 7 7 6 6 5 3 2 3 4 5 6 7 6 6 4 0 1 1 2 3 1 3 4 5 5 6 6 6 6 7 7
7 5 5 5 4 7 7 9 9 9 5 8 8 8 7 5 4 2 1 3 5 5 6 6 6 7 7 5 1 1 3 4 1 2 4 5 5 5 6 7 7 7 7 8
7 8 6 7 7 6 9 8 8 7 8 8 8 7 7 5 3 2 1 2 4 5 5 5 6 7 8 7 3 3 4 3 1 3 5 5 6 6 6 6 7 6 6 6
3 4 4 3 5 5 6 5 7 7 8 8 8 7 7 6 4 3 2 1 3 5 5 5 6 7 7 7 6 5 5 2 4 5 5 5 5 5 6 5 5 5 5 5
7 6 4 4 4 4 5 7 8 8 9 9 8 7 8 7 5 4 3 0 2 3 4 4 5 5 6 6 7 7 6 3 4 5 5 5 4 5 5 5 4 4 4 3
6 8 8 8 9 9 11 10 10 11 10 10 9 8 7 6 6 5 3 2 0 1 3 5 6 5 5 5 7 7 6 3 4 4 4 4 4 4 4 4 3 5 3 5
Wind_Direction
50 51 48 48 54 69 64 65 34 20 7 30 65 57 48 41 42 37 28 22 14 10 10 15 22 23 22 21 16 11 6 359 355 334 245 213 209 201 196 196 188 188 187 182
53 40 37 54 41 45 50 53 19 336 349 30 81 64 51 44 38 30 22 14 6 4 9 11 14 17 17 13 9 6 359 350 346 326 274 240 223 208 190 182 168 169 172 175
86 18 27 44 31 19 17 47 351 315 348 22 103 60 30 28 28 22 16 10 5 5 5 4 5 9 9 9 4 360 352 348 343 334 312 279 152 112 138 159 170 150 155 170
68 12 32 38 19 6 325 318 315 308 8 325 60 109 22 1 13 12 5 1 357 354 359 1 2 3 4 1 358 355 353 352 349 345 337 277 199 191 187 171 169 141 130 155
79 42 41 26 353 354 302 301 304 295 171 44 17 102 19 359 5 357 354 353 349 349 353 357 359 357 357 355 355 354 354 357 355 354 351 344 170 167 148 142 141 134 126 120
66 55 51 354 333 343 333 353 29 45 71 55 347 87 39 9 349 342 344 345 343 348 351 353 354 355 354 353 355 355 357 359 359 2 6 12 39 91 126 136 145 146 138 134
40 14 6 3 1 357 20 43 32 23 28 35 35 75 60 352 344 336 336 337 341 348 350 352 356 356 352 351 353 355 1 2 0 7 14 21 32 53 86 112 126 135 137 145
98 13 15 20 12 346 10 73 105 112 299 335 36 72 137 352 341 338 341 342 350 351 352 353 355 352 348 347 352 355 1 4 2 7 14 23 34 45 54 64 85 99 109 135
121 95 84 56 26 42 19 9 153 149 49 67 53 52 313 346 349 350 351 353 357 354 355 357 355 352 350 348 354 357 3 7 6 9 16 25 35 48 58 62 67 74 76 94
122 114 49 26 18 14 48 17 55 67 72 47 27 22 342 335 338 341 346 349 350 350 354 357 355 352 353 351 356 4 11 11 11 13 17 24 26 36 47 57 60 58 47 46
82 107 14 26 28 7 6 20 60 76 87 96 23 349 330 318 322 326 332 338 339 341 343 346 348 348 353 3 10 13 11 13 15 17 17 20 18 21 31 35 24 21 17 9
57 102 76 34 317 56 46 27 78 102 63 64 89 322 309 311 312 317 322 325 329 334 338 340 343 351 1 12 14 15 15 17 10 10 19 20 20 26 31 29 22 17 6 359
84 104 93 354 342 4 32 17 66 101 96 65 57 322 314 318 318 320 320 323 327 331 336 342 348 355 1 10 12 14 17 19 16 20 26 29 29 31 30 26 27 36 42 48
100 87 136 161 204 178 75 40 57 89 99 105 45 286 311 325 331 332 332 330 331 337 343 355 356 356 360 4 5 10 16 19 26 27 31 33 30 29 31 35 39 42 47 56
92 102 133 161 159 129 125 111 88 93 135 140 213 257 281 297 306 317 327 335 352 357 3 5 2 360 0 7 10 15 18 18 24 31 33 29 28 32 38 43 45 48 53 58
90 127 133 149 160 133 126 140 125 118 140 158 206 258 257 278 309 325 333 346 1 4 6 5 4 7 7 14 17 20 21 18 26 34 30 25 30 34 37 40 45 51 50 50
86 121 124 187 173 115 167 191 171 163 177 175 196 227 235 251 297 309 332 0 5 2 359 360 360 360 1 8 27 28 23 29 35 32 27 25 30 34 32 38 42 44 44 46
114 106 121 131 140 237 250 209 160 162 190 204 213 218 206 203 247 295 305 2 356 355 355 352 350 351 350 5 14 34 44 44 39 29 25 26 34 36 33 37 38 37 38 42
120 127 112 118 152 263 267 195 173 169 212 214 194 189 180 180 32 339 309 317 331 338 343 336 335 337 345 344 240 102 59 38 35 25 22 27 40 42 38 34 28 26 36 38
64 87 105 123 161 230 237 203 160 120 217 223 166 158 163 133 83 280 288 314 340 340 338 338 340 350 353 325 258 116 86 17 2 1 29 49 55 51 44 34 29 29 43 43
11 41 122 176 219 253 237 150 120 156 226 196 161 154 152 168 200 238 277 350 354 341 338 348 353 350 336 321 293 132 252 277 278 355 54 61 59 59 54 46 40 43 48 46
176 176 201 172 204 251 188 142 175 210 171 150 150 156 156 181 200 206 53 24 10 352 346 353 354 344 338 344 8 330 295 278 287 78 77 68 58 62 62 55 44 39 43 45
186 188 187 188 213 233 178 185 196 158 150 154 155 160 153 154 157 142 103 28 2 355 350 348 353 350 353 2 25 2 314 306 109 106 102 95 76 62 59 60 53 42 38 42
255 150 137 205 253 200 186 170 154 155 155 160 156 152 148 152 150 134 143 4 356 351 347 347 357 2 356 356 12 4 346 29 113 124 126 121 100 79 62 54 50 51 40 38
223 171 167 218 226 174 214 192 166 152 147 148 148 148 153 152 149 156 176 258 353 353 342 351 356 351 348 357 5 1 4 50 102 124 132 132 125 113 89 66 48 50 35 29
196 175 178 212 199 179 204 199 170 155 161 160 155 158 161 161 166 165 185 211 205 353 349 354 352 348 347 359 359 356 0 50 114 125 136 146 149 140 126 112 70 26 11 9
Height
1532 1538 1546 1544 1540 1540 1541 1544 1547 1542 1537 1537 1543 1547 1548 1547 1546 1546 1545 1542 1541 1538 1535 1532 1529 1526 1524 1521 1519 1517 1516 1515 1515 1516 1516 1518 1518 1519 1521 1523 1525 1527 1529 1531
1541 1548 1545 1540 1539 1539 1543 1548 1550 1545 1539 1539 1548 1553 1553 1553 1554 1554 1551 1548 1544 1539 1535 1531 1528 1526 1523 1520 1518 1515 1514 1513 1512 1512 1512 1513 1515 1516 1517 1520 1522 1524 1526 1528
1548 1551 1544 1541 1543 1546 1546 1549 1549 1548 1543 1541 1548 1560 1561 1559 1558 1556 1553 1550 1547 1543 1538 1533 1529 1526 1523 1520 1517 1514 1512 1510 1509 1508 1508 1509 1510 1512 1513 1514 1516 1518 1521 1524
1549 1550 1546 1547 1549 1548 1552 1544 1543 1543 1549 1556 1551 1570 1571 1564 1561 1558 1556 1552 1548 1545 1540 1535 1531 1527 1524 1521 1517 1514 1511 1508 1506 1504 1504 1504 1505 1506 1507 1508 1511 1512 1515 1519
1555 1553 1553 1554 1552 1549 1548 1541 1541 1541 1548 1558 1559 1570 1577 1569 1567 1564 1560 1555 1551 1547 1542 1537 1534 1529 1525 1521 1517 1514 1510 1507 1504 1502 1500 1499 1500 1501 1502 1504 1506 1507 1510 1512
1554 1554 1554 1555 1551 1549 1545 1543 1544 1549 1557 1572 1570 1574 1581 1578 1575 1569 1562 1557 1553 1547 1543 1539 1535 1530 1526 1522 1518 1514 1510 1506 1503 1500 1498 1497 1497 1497 1498 1500 1502 1503 1506 1508
1562 1560 1557 1556 1555 1552 1552 1560 1570 1573 1580 1581 1573 1577 1585 1580 1576 1571 1565 1559 1553 1548 1543 1539 1535 1530 1526 1522 1519 1515 1511 1507 1504 1501 1498 1497 1496 1496 1497 1498 1500 1501 1502 1505
1571 1575 1564 1561 1560 1561 1560 1566 1581 1586 1585 1583 1578 1582 1584 1579 1575 1570 1565 1559 1553 1548 1544 1540 1535 1531 1527 1523 1519 1516 1512 1509 1506 1503 1500 1498 1497 1497 1497 1498 1499 1500 1502 1504
1572 1575 1566 1563 1562 1561 1565 1569 1568 1578 1577 1584 1584 1582 1579 1576 1573 1569 1564 1560 1554 1549 1544 1540 1536 1532 1528 1524 1520 1517 1514 1511 1508 1505 1503 1501 1500 1499 1499 1499 1499 1500 1501 1503
1563 1574 1569 1566 1565 1564 1565 1567 1575 1581 1589 1593 1587 1587 1588 1580 1575 1570 1565 1561 1556 1551 1546 1541 1537 1533 1529 1525 1522 1519 1516 1513 1511 1508 1506 1504 1503 1502 1502 1501 1501 1502 1502 1503
1561 1574 1578 1574 1575 1575 1571 1573 1577 1585 1587 1594 1596 1596 1587 1583 1577 1572 1567 1562 1558 1553 1548 1544 1539 1535 1531 1527 1523 1521 1518 1516 1514 1512 1510 1508 1507 1505 1505 1504 1504 1504 1504 1504
1564 1577 1584 1578 1573 1571 1572 1575 1579 1589 1594 1594 1596 1599 1584 1581 1577 1573 1568 1563 1559 1555 1551 1547 1542 1538 1534 1530 1526 1523 1521 1518 1516 1514 1513 1511 1510 1509 1508 1507 1506 1506 1506 1506
1565 1577 1591 1589 1586 1578 1577 1577 1579 1586 1594 1596 1597 1598 1582 1580 1576 1573 1568 1564 1560 1557 1553 1549 1545 1541 1538 1534 1531 1527 1524 1521 1519 1517 1515 1513 1512 1511 1510 1509 1509 1508 1508 1508
1563 1575 1584 1589 1588 1581 1582 1581 1581 1586 1596 1598 1596 1593 1586 1581 1577 1573 1569 1566 1562 1559 1555 1552 1549 1546 1542 1539 1535 1532 1528 1525 1523 1520 1518 1516 1515 1513 1512 1511 1510 1509 1509 1508
1565 1577 1576 1577 1576 1577 1581 1583 1583 1586 1591 1595 1593 1591 1585 1581 1578 1574 1571 1567 1564 1561 1558 1555 1552 1549 1546 1543 1539 1536 1533 1530 1527 1524 1522 1520 1518 1517 1515 1513 1512 1510 1509 1509
1566 1575 1577 1579 1577 1578 1582 1583 1583 1585 1587 1589 1589 1588 1581 1579 1577 1575 1572 1569 1566 1563 1560 1558 1555 1552 1549 1546 1543 1540 1537 1534 1531 1528 1526 1524 1522 1520 1518 1516 1514 1513 1511 1510
1569 1574 1582 1586 1579 1582 1589 1582 1582 1583 1582 1584 1586 1584 1579 1579 1577 1575 1573 1570 1568 1565 1563 1560 1557 1555 1552 1549 1546 1543 1540 1538 1535 1532 1530 1527 1525 1523 1520 1519 1517 1515 1513 1512
1568 1575 1583 1586 1586 1591 1584 1574 1576 1578 1579 1578 1578 1577 1577 1577 1577 1575 1574 1572 1570 1567 1565 1562 1560 1557 1554 1552 1549 1546 1543 1541 1538 1535 1533 1531 1528 1525 1523 1521 1519 1517 1516 1514
1565 1571 1581 1589 1590 1587 1580 1574 1575 1578 1579 1575 1576 1575 1576 1577 1577 1575 1574 1572 1571 1569 1566 1564 1561 1559 1556 1553 1551 1548 1546 1543 1541 1538 1536 1533 1531 1528 1526 1523 1522 1520 1519 1517
1566 1570 1579 1584 1586 1589 1576 1568 1570 1576 1580 1573 1573 1574 1575 1576 1579 1577 1574 1573 1571 1569 1567 1564 1562 1559 1557 1554 1552 1550 1548 1545 1543 1541 1539 1536 1533 1530 1528 1525 1524 1522 1521 1519
1572 1574 1578 1582 1581 1576 1565 1565 1570 1584 1578 1570 1571 1573 1574 1575 1576 1575 1574 1573 1571 1569 1567 1565 1562 1560 1557 1555 1553 1551 1549 1547 1545 1543 1541 1538 1536 1533 1530 1528 1526 1525 1523 1521
1571 1576 1577 1581 1580 1576 1560 1563 1569 1567 1564 1567 1570 1572 1573 1574 1574 1574 1573 1572 1571 1569 1567 1565 1563 1560 1558 1556 1554 1552 1550 1548 1546 1545 1543 1540 1538 1535 1533 1530 1529 1527 1525 1523
1562 1561 1564 1566 1566 1555 1555 1556 1559 1560 1563 1565 1568 1570 1572 1573 1573 1573 1573 1572 1571 1569 1567 1565 1563 1561 1559 1557 1554 1552 1550 1548 1547 1546 1544 1542 1540 1538 1536 1533 1531 1530 1528 1526
1553 1552 1555 1557 1554 1552 1554 1555 1557 1559 1561 1564 1567 1569 1571 1572 1572 1573 1572 1572 1570 1569 1568 1566 1564 1562 1560 1557 1555 1553 1551 1549 1548 1546 1545 1544 1542 1540 1538 1536 1534 1532 1530 1528
1548 1549 1552 1553 1550 1552 1553 1554 1556 1558 1561 1564 1566 1568 1570 1571 1571 1572 1572 1571 1570 1569 1568 1566 1564 1562 1560 1558 1556 1554 1552 1550 1549 1547 1546 1545 1544 1542 1541 1539 1537 1535 1533 1531
1541 1543 1547 1547 1543 1545 1546 1550 1553 1556 1559 1562 1564 1566 1568 1570 1570 1571 1571 1570 1570 1569 1568 1566 1564 1563 1561 1559 1557 1554 1552 1551 1550 1548 1547 1547 1545 1544 1543 1541 1539 1538 1535 1533